Regional Weather Roundup
Issued by NWS

Home | Current Version | Previous Version | Text Only | Print | Product List | Glossary Off
Versions: 1 2 3 4 5 6 7 8 9 10 11 12 13 14 15 16 17 18 19 20 21 22 23 24 25 26 27 28 29 30 31 32 33 34 35 36 37 38 39 40 41 42 43 44 45 46 47 48 49 50

000
ASUS43 KMKX 230321
RWRWI

WISCONSIN REGIONAL WEATHER ROUNDUP
NATIONAL WEATHER SERVICE MILWAUKEE/SULLIVAN WI
900 PM CST MON DEC 22 2014

NOTE: "FAIR" INDICATES FEW OR NO CLOUDS BELOW 12,000 FEET WITH NO
SIGNIFICANT WEATHER AND/OR OBSTRUCTIONS TO VISIBILITY.

WIZ001-002-006>008-014>016-023>028-230400-
NORTHWEST WISCONSIN

CITY           SKY/WX    TMP DP  RH WIND       PRES   REMARKS
SUPERIOR ARPT  CLOUDY    35  34  96 NE9       29.74S FOG     WCI  28
ASHLAND        CLOUDY    34  32  92 NE7       29.76S WCI  28
HAYWARD        CLOUDY    35  31  85 E6        29.70S FOG     WCI  30
SIREN          CLOUDY    35  32  90 E5        29.69S WCI  31
CUMBERLAND     CLOUDY    34  32  93 E8G17     29.67S WCI  27
RICE LAKE      CLOUDY    35  32  87 E10       29.69S WCI  27
CHETEK         CLOUDY    35  32  89 E8        29.67S WCI  28
LADYSMITH      CLOUDY    35  32  88 E9G17     29.71S FOG     WCI  28
EAU CLAIRE     LGT SNOW  33  31  92 NE9       29.65S FOG     WCI  25
MENOMONIE      LGT RAIN  35  33  93 E10       29.66S WCI  27
NEW RICHMOND   CLOUDY    35  33  92 E13G21    29.64S FOG     WCI  26
OSCEOLA        CLOUDY    36  35  96 E12G17    29.67S WCI  28
$$

WIZ003>005-009-010-017-018-230400-
NORTH CENTRAL WISCONSIN

CITY           SKY/WX    TMP DP  RH WIND       PRES   REMARKS
MANITOWISH WTR LGT SNOW  31  31  98 E7        29.73S WCI  24
ARBOR VITAE    LGT SNOW  32  30  93 E8        29.73F WCI  25
WOODRUFF       LGT SNOW  32  30  93 E8        29.73F WCI  25
RHINELANDER    LGT SNOW  30  28  92 E13       29.73F FOG     WCI  20
EAGLE RIVER    LGT SNOW  31  30  96 E10       29.75S WCI  22
LAND O LAKES   LGT SNOW  31  30  94 E8        29.77S WCI  24
PHILLIPS       LGT SNOW  32  30  94 E7        29.70S WCI  25
TOMAHAWK       LGT SNOW  31  30  93 E6        29.72F WCI  26
MEDFORD        LGT SNOW  32  31  95 E12G18    29.67F WCI  23
MERRILL        LGT SNOW  32  31  98 E10       29.71S WCI  24
$$

WIZ029-030-035-036-043>047-230400-
CENTRAL WISCONSIN

CITY           SKY/WX    TMP DP  RH WIND       PRES   REMARKS
WAUSAU         LGT SNOW  32  31  96 E14       29.68F FOG     WCI  22
MOSINEE        LGT SNOW  32  32 100 E12       29.69F WCI  23
MARSHFIELD     LGT SNOW  33  31  92 E14       29.66F FOG     WCI  23
STEVENS POINT  LGT SNOW  31  31  98 E12       29.69S WCI  22
WAUPACA        LGT SNOW  35  33  94 NE7       29.70F WCI  29
WAUTOMA        MIX PCPN  33  33 100 NE9       29.67F FOG     WCI  25
WISC RAPIDS    LGT SNOW  33  30  88 E14       29.67F FOG     WCI  23
CAMP DOUGLAS   CLOUDY    32  32 100 E10       29.64S FOG     WCI  24
$$

WIZ011>013-019>022-031-037>040-048>050-230400-
NORTHEAST WISCONSIN

CITY           SKY/WX    TMP DP  RH WIND       PRES   REMARKS
ANTIGO         LGT SNOW  31  30  96 E14G20    29.71F WCI  20
SHAWANO        LGT SNOW  34  33  95 E9        29.75F VSB 1   WCI  27
OCONTO         CLOUDY    32  32 100 E9        29.78F WCI  24
STURGEON BAY   CLOUDY    36  30  80 E12G17    29.79F WCI  27
GREEN BAY      LGT SNOW  35  33  92 MISG      29.75F FOG
MANITOWOC      LGT RAIN  37  36  96 SE15G21   29.74F FOG     WCI  28
APPLETON       NOT AVBL
CLINTONVILLE   LGT SNOW  32  32 100 E10       29.71F WCI  24
OSHKOSH        LGT RAIN  36  33  89 E13       29.68F FOG     WCI  27
$$

WIZ032>034-041-042-053>061-230400-
SOUTHWEST WISCONSIN

CITY           SKY/WX    TMP DP  RH WIND       PRES   REMARKS
LA CROSSE      CLOUDY    36  33  89 E13       29.60F WCI  27
SPARTA         CLOUDY    34  33  98 E8        29.63F FOG     WCI  27
VIROQUA        CLOUDY    33  33 100 E13       29.58S WCI  24
BOSCOBEL       CLOUDY    36  34  92 NE5       29.59F FOG     WCI  32
PRAIRIE DU CHI CLOUDY    37  35  93 E6        29.57S FOG     WCI  32
PLATTEVILLE    CLOUDY    36  36  97 E12       29.57S WCI  28
$$

WIZ056-057-062-063-064-067-068-230400-
SOUTH CENTRAL WISCONSIN

CITY           SKY/WX    TMP DP  RH WIND       PRES   REMARKS
REEDSBURG      CLOUDY    34  33  99 E7        29.62S FOG     WCI  28
BARABOO/DELLS  FOG       34  33  97 E5        29.62S VSB 1   WCI  30
LONE ROCK      CLOUDY    39  34  82 E12       29.61F HAZE    WCI  32
MINERAL POINT  CLOUDY    36  36 100 E10       29.57F FOG     WCI  28
MADISON        DRIZZLE   37  35  92 E8        29.62F FOG     WCI  31
MIDDLETON      CLOUDY    37  37 100 E6        29.62F WCI  32
WATERTOWN      CLOUDY    37  37 100 E10       29.64S FOG     WCI  30
MONROE         FOG       36  36 100 E8        29.58F VSB 1/4 WCI  29
JANESVILLE     CLOUDY    37  36  93 E8        29.60F FOG     WCI  31
$$

WIZ051-052-058>065-066-070>072-230400-
SOUTHEAST WISCONSIN

CITY           SKY/WX    TMP DP  RH WIND       PRES   REMARKS
MILWAUKEE      LGT RAIN  39  37  92 SE17G24   29.68F FOG     WCI  30
WAUKESHA       LGT RAIN  36  36 100 SE12      29.66S WCI  27
MILWAUKEE/TIMM LGT RAIN  37  36  93 SE15G23   29.68F WCI  28
RACINE         LGT RAIN  40  38  93 SE12      29.69F FOG     WCI  33
BURLINGTON     MIX PCPN  37  37  99 SE10G18   29.64F WCI  30
KENOSHA        LGT RAIN  40  38  93 SE14      29.66F FOG     WCI  32
FOND DU LAC    LGT RAIN  38  35  89 SE17G23   29.66F WCI  28
SHEBOYGAN      LGT RAIN  38  32  79 SE13G20   29.71F WCI  30
WEST BEND      LGT RAIN  37  36  93 E13G20    29.67F WCI  29
JUNEAU         RAIN      37  36  97 E9        29.66S WCI  30
$$

LSZ147-162-230400-
LAKE SUPERIOR

STATION/POSITION TIME  TEMP    WIND        PRES    WAVE
                       AIR SEA DIR/SP/G            HT/PER
                 (UTC) (F)     (DEG/KT/KT) (MB)    (FT/S)
DEVILS ISLAND    0300   36      80/ 13/ 14 1008.9F
PORT WING        0200   34      30/  9/ 10 1007.8S
SAXON HARBOR     0200   37      CALM  /  1 1007.8S
$$

LMZ867-665-643>646-230400-
LAKE MICHIGAN

STATION/POSITION TIME  TEMP    WIND        PRES    WAVE
                       AIR SEA DIR/SP/G            HT/PER
                 (UTC) (F)     (DEG/KT/KT) (MB)    (FT/S)
CHAMBERS ISLAND  0200   33      70/ 11/ 14 1010.2
NORTHPORT PIER   0200   35     100/ 17/ 20 1010.8F
SISTER BAY       0213           90/ 12/ 19   N/A
ALGOMA LAKESHORE 0215          110/ 23/ 28   N/A
KEWAUNEE LAKESHO 0200   36     120/ 18/ 24 1007.6F
SHEBOYGAN LAKESH 0300   39 36  110/ 29/ 32 1006.2F
PORT WASHINGTON  0240   40     130/ 14/ 19 1006.8F
MILWAUKEE LAKESH 0300   39     130/ 17/ 19   N/A
KENOSHA   LAKESH 0300   39     150/ 15/ 18 1004.7F
$$

TC  - TEMPERATURE IN CELSIUS
VSB - VISIBILITY IN STATUTE MILES
WCI - WIND CHILL INDEX
HX  - HEAT INDEX



USA.gov is the U.S. government's official web portal to all federal, state and local government web resources and services.